User: anonymous   Login
Location: Unspecified
(0.0000°N, 0.0000°E)
Time: 00:33:14
(UTC+00:00)
Language:

GOES 6 - Orbit

View from above orbital plane
View from above orbital plane
View from above satellite
View from above satellite

Ground track
Ground track

The orbit data is extracted from the following two-line orbital elements,

1 14050U 83041A   18265.38941314 +.00000056 +00000-0 +00000-0 0  9992
2 14050 014.2370 345.0769 0001912 261.1593 121.1054 01.00262157187737
Epoch (UTC): 22 September 2018 09:20:45
Eccentricity: 0.0001912
inclination: 14.2370°
perigee height: 35781 km
apogee height: 35797 km
right ascension of ascending node: 345.0769°
argument of perigee: 261.1593°
revolutions per day: 1.00262157
mean anomaly at epoch: 121.1054°
orbit number at epoch: 18773

The dashed part of the orbit path shows where the satellite is in the earth's shadow,  

DLR